Weather History for Clinton-Sherman, OK

Change the Weather History Date:

Wednesday, December 4, 2013

  Actual Average Record
Temperature  
Mean Temperature 39 °F -  
Max Temperature 50 °F 52 °F 73 °F (2007)
Min Temperature 27 °F 32 °F 21 °F (2005)
Degree Days  
Heating Degree Days 26    
Moisture  
Dew Point 25 °F    
Average Humidity 64    
Maximum Humidity 83    
Minimum Humidity 47    
Precipitation  
Precipitation 0.00 in - - ()
Sea Level Pressure  
Sea Level Pressure 29.79 in    
Wind  
Wind Speed 18 mph (NNW)    
Max Wind Speed 30 mph    
Max Gust Speed 36 mph    
Visibility 10 miles    
Events      
Averages and records for this station are not official NWS values.
T = Trace of Precipitation, MM = Missing Value Source: NWS Daily Summary

Daily Weather History Graph

Daily Weather History Graph

Search for Another Location

Airport:

Trip Planner

Search our weather history database for the weather conditions in past years. The results will help you decide how hot, cold, wet, or windy it might be!

Date:

Astronomy

Dec. 04, 2013 Rise Set
Actual Time 7:30 AM CST 5:24 PM CST
Civil Twilight 7:02 AM CST 5:52 PM CST
Nautical Twilight 6:30 AM CST 6:23 PM CST
Astronomical Twilight 5:59 AM CST 6:54 PM CST
Moon 9:01 AM CST (12/4) 7:34 PM CST (12/4)
Length of Visible Light 10h 49m
Length of Day
9h 53m
Waxing Crescent, 4% of the Moon is Illuminated
Dec 4
Waxing Crescent
Dec 9
First Quarter
Dec 17
Full
Dec 25
Last Quarter
Jan 1
New

Hourly Weather History & Observations

Time (CST) Temp. Windchill Dew Point Humidity Pressure Visibility Wind Dir Wind Speed Gust Speed Precip Events Conditions
12:53 AM 50.0 °F - 34.0 °F 54% 29.47 in 10.0 mi South 12.7 mph - N/A   Clear
1:53 AM 46.9 °F - 34.0 °F 61% 29.48 in 10.0 mi SW 12.7 mph - N/A   Clear
2:53 AM 46.9 °F - 34.0 °F 61% 29.49 in 10.0 mi WSW 12.7 mph - N/A   Clear
3:53 AM 44.1 °F 34.6 °F 33.1 °F 65% 29.55 in 10.0 mi NW 26.5 mph - N/A   Clear
4:53 AM 37.9 °F 27.1 °F 33.1 °F 83% 29.61 in 7.0 mi NNW 23.0 mph 31.1 mph N/A   Clear
5:44 AM 37.4 °F 25.9 °F 32.0 °F 81% 29.64 in 7.0 mi NNW 25.3 mph 34.5 mph N/A   Mostly Cloudy
5:53 AM 37.0 °F 24.5 °F 32.0 °F 82% 29.65 in 7.0 mi NNW 29.9 mph 35.7 mph N/A   Overcast
6:53 AM 36.0 °F 24.7 °F 30.9 °F 82% 29.70 in 10.0 mi North 21.9 mph 29.9 mph N/A   Overcast
7:53 AM 35.1 °F 24.5 °F 28.9 °F 78% 29.74 in 10.0 mi NNW 18.4 mph - N/A   Mostly Cloudy
8:40 AM 33.8 °F 21.9 °F 26.6 °F 75% 29.74 in 10.0 mi North 21.9 mph - N/A   Scattered Clouds
8:53 AM 34.0 °F 22.4 °F 27.0 °F 75% 29.75 in 10.0 mi North 20.7 mph - N/A   Clear
9:53 AM 34.0 °F 23.8 °F 27.0 °F 75% 29.82 in 10.0 mi NNW 16.1 mph - N/A   Mostly Cloudy
10:53 AM 35.1 °F 25.5 °F 26.1 °F 70% 29.82 in 10.0 mi NNW 15.0 mph - N/A   Overcast
11:33 AM 37.4 °F 30.3 °F 26.6 °F 65% 29.81 in 10.0 mi NW 10.4 mph - N/A   Scattered Clouds
11:53 AM 37.9 °F 32.1 °F 27.0 °F 65% 29.81 in 10.0 mi North 8.1 mph - N/A   Partly Cloudy
12:53 PM 39.9 °F 31.4 °F 25.0 °F 55% 29.79 in 10.0 mi North 16.1 mph - N/A   Clear
1:53 PM 42.1 °F 34.9 °F 25.0 °F 51% 29.78 in 10.0 mi North 13.8 mph 18.4 mph N/A   Clear
2:53 PM 41.0 °F 33.1 °F 24.1 °F 51% 29.79 in 10.0 mi North 15.0 mph - N/A   Clear
3:53 PM 39.9 °F 31.1 °F 23.0 °F 51% 29.82 in 10.0 mi North 17.3 mph - N/A   Clear
4:53 PM 37.9 °F 27.6 °F 21.9 °F 53% 29.86 in 10.0 mi NNE 20.7 mph - N/A   Clear
5:53 PM 33.1 °F 22.2 °F 21.0 °F 61% 29.92 in 10.0 mi North 17.3 mph - N/A   Clear
6:53 PM 30.9 °F 19.8 °F 19.9 °F 64% 29.94 in 10.0 mi North 16.1 mph 24.2 mph N/A   Clear
7:53 PM 30.0 °F 17.5 °F 17.1 °F 59% 29.97 in 10.0 mi North 19.6 mph 28.8 mph N/A   Clear
8:53 PM 28.9 °F 16.5 °F 17.1 °F 61% 30.01 in 10.0 mi North 18.4 mph - N/A   Clear
9:53 PM 30.0 °F 17.5 °F 16.0 °F 56% 30.05 in 10.0 mi North 19.6 mph - N/A   Clear
10:53 PM 28.9 °F 15.8 °F 14.0 °F 54% 30.08 in 10.0 mi North 20.7 mph 28.8 mph N/A   Clear
11:53 PM 27.0 °F 11.9 °F 9.0 °F 47% 30.11 in 10.0 mi North 25.3 mph - N/A   Clear